| time (UTC) | temp F | wind direction | speed knots | gust knots | rain 1hr in | rain 24hr in | rain mn in | humidity % | barometer mb |
| 20260504004534 | 54 | 229 | 0.0 | 0.9 | 0.00 | 0.00 | 0.00 | 38 | 1012.1 |
| 20260504003029 | 55 | 153 | 0.0 | 0.9 | 0.00 | 0.00 | 0.00 | 37 | 1011.9 |
| 20260504001557 | 56 | 211 | 0.0 | 1.7 | 0.00 | 0.00 | 0.00 | 35 | 1011.7 |
| 20260504000316 | 58 | 234 | 0.0 | 1.7 | 0.00 | 0.00 | 0.00 | 33 | 1011.4 |
| 20260504000001 | 57 | 246 | 0.0 | 2.6 | 0.00 | 0.00 | 0.00 | 33 | 1011.5 |
| 20260503234503 | 58 | 258 | 0.0 | 3.5 | 0.00 | 0.00 | 0.00 | 32 | 1011.4 |
| 20260503233002 | 59 | 146 | 0.0 | 5.2 | 0.00 | 0.00 | 0.00 | 31 | 1011.1 |
| 20260503231513 | 61 | 224 | 0.0 | 3.5 | 0.00 | 0.00 | 0.00 | 28 | 1011.1 |
| 20260503230031 | 61 | 252 | 0.9 | 8.7 | 0.00 | 0.00 | 0.00 | 28 | 1010.9 |
| 20260503224553 | 61 | 336 | 2.6 | 7.8 | 0.00 | 0.00 | 0.00 | 27 | 1010.9 |
| 20260503223002 | 61 | 347 | 1.7 | 8.7 | 0.00 | 0.00 | 0.00 | 26 | 1010.8 |
| 20260503221520 | 61 | 25 | 1.7 | 10.4 | 0.00 | 0.00 | 0.00 | 27 | 1010.7 |
| 20260503220304 | 61 | 345 | 6.1 | 11.3 | 0.00 | 0.00 | 0.00 | 26 | 1010.8 |
| 20260503220021 | 61 | 324 | 3.5 | 11.3 | 0.00 | 0.00 | 0.00 | 26 | 1010.8 |
| 20260503214541 | 61 | 284 | 2.6 | 9.6 | 0.00 | 0.00 | 0.00 | 27 | 1010.8 |
| 20260503213001 | 61 | 238 | 3.5 | 11.3 | 0.00 | 0.00 | 0.00 | 26 | 1010.7 |
| 20260503211508 | 61 | 331 | 3.5 | 13.9 | 0.00 | 0.00 | 0.00 | 26 | 1010.8 |
| 20260503210025 | 60 | 319 | 2.6 | 13.9 | 0.00 | 0.00 | 0.00 | 28 | 1010.8 |
| 20260503204555 | 61 | 246 | 3.5 | 10.4 | 0.00 | 0.00 | 0.00 | 27 | 1010.6 |
| 20260503203003 | 60 | 248 | 2.6 | 17.4 | 0.00 | 0.00 | 0.00 | 28 | 1010.8 |
| 20260503201525 | 60 | 317 | 4.3 | 10.4 | 0.00 | 0.00 | 0.00 | 29 | 1010.8 |
| 20260503200318 | 60 | 292 | 4.3 | 11.3 | 0.00 | 0.00 | 0.00 | 27 | 1011.0 |
| 20260503200033 | 60 | 284 | 2.6 | 11.3 | 0.00 | 0.00 | 0.00 | 29 | 1011.1 |
| 20260503194551 | 60 | 255 | 5.2 | 13.9 | 0.00 | 0.00 | 0.00 | 28 | 1011.1 |
| 20260503193028 | 59 | 254 | 4.3 | 11.3 | 0.00 | 0.00 | 0.00 | 29 | 1011.3 |
| 20260503191528 | 59 | 303 | 3.5 | 13.0 | 0.00 | 0.00 | 0.00 | 30 | 1011.4 |
| 20260503190052 | 58 | 36 | 4.3 | 15.6 | 0.00 | 0.00 | 0.00 | 31 | 1011.3 |
| 20260503184607 | 57 | 287 | 3.5 | 9.6 | 0.00 | 0.00 | 0.00 | 34 | 1011.7 |
| 20260503183005 | 57 | 15 | 4.3 | 13.0 | 0.00 | 0.00 | 0.00 | 33 | 1011.8 |
| 20260503181515 | 56 | 262 | 3.5 | 10.4 | 0.00 | 0.00 | 0.00 | 36 | 1011.9 |
| 20260503180316 | 56 | 358 | 1.7 | 10.4 | 0.00 | 0.00 | 0.00 | 37 | 1011.9 |
| 20260503180021 | 55 | 28 | 2.6 | 10.4 | 0.00 | 0.00 | 0.00 | 38 | 1012.1 |
| 20260503174539 | 54 | 32 | 3.5 | 12.2 | 0.00 | 0.00 | 0.00 | 38 | 1012.0 |
| 20260503173046 | 54 | 270 | 1.7 | 14.8 | 0.00 | 0.00 | 0.00 | 39 | 1012.1 |
| 20260503171601 | 54 | 254 | 4.3 | 11.3 | 0.00 | 0.00 | 0.00 | 37 | 1012.2 |
| 20260503140302 | 52 | 289 | 2.6 | 7.8 | 0.00 | 0.00 | 0.00 | 45 | 1012.7 |
| 20260503081542 | 47 | 188 | 1.7 | 6.1 | 0.00 | 0.00 | 0.00 | 51 | 1010.7 |
| 20260503080310 | 48 | 294 | 1.7 | 4.3 | 0.00 | 0.00 | 0.00 | 51 | 1010.7 |
| 20260503071531 | 48 | 309 | 0.9 | 5.2 | 0.00 | 0.00 | 0.00 | 48 | 1010.7 |
| 20260503060309 | 51 | 318 | 2.6 | 6.1 | 0.00 | 0.00 | 0.00 | 44 | 1010.8 |
| 20260503054549 | 50 | 18 | 0.9 | 6.1 | 0.00 | 0.00 | 0.00 | 43 | 1010.8 |
| 20260503053008 | 51 | 355 | 3.5 | 9.6 | 0.00 | 0.00 | 0.00 | 41 | 1010.9 |
| 20260503051518 | 51 | 209 | 2.6 | 7.8 | 0.00 | 0.00 | 0.00 | 41 | 1011.3 |
| 20260503050025 | 51 | 341 | 1.7 | 7.8 | 0.00 | 0.00 | 0.00 | 42 | 1011.3 |
| 20260503044544 | 52 | 356 | 2.6 | 11.3 | 0.00 | 0.00 | 0.00 | 41 | 1011.4 |
| 20260503043040 | 52 | 3 | 2.6 | 8.7 | 0.00 | 0.00 | 0.00 | 42 | 1011.3 |
| 20260503041551 | 52 | 77 | 1.7 | 6.1 | 0.00 | 0.00 | 0.00 | 41 | 1011.4 |
| 20260503040305 | 53 | 334 | 1.7 | 6.1 | 0.00 | 0.00 | 0.00 | 41 | 1011.5 |
| 20260503040104 | 52 | 8 | 1.7 | 6.1 | 0.00 | 0.00 | 0.00 | 41 | 1011.5 |
| 20260503034518 | 53 | 281 | 1.7 | 8.7 | 0.00 | 0.00 | 0.00 | 41 | 1011.4 |
| 20260503033044 | 53 | 23 | 1.7 | 5.2 | 0.00 | 0.00 | 0.00 | 40 | 1011.3 |
| 20260503031559 | 53 | 307 | 1.7 | 7.8 | 0.00 | 0.00 | 0.00 | 40 | 1011.3 |
| 20260503030018 | 54 | 20 | 1.7 | 10.4 | 0.00 | 0.00 | 0.00 | 38 | 1011.4 |
| 20260503024533 | 54 | 346 | 1.7 | 7.0 | 0.00 | 0.00 | 0.00 | 39 | 1011.4 |
| 20260503023048 | 54 | 337 | 0.9 | 6.1 | 0.00 | 0.00 | 0.00 | 38 | 1011.3 |
| 20260503021513 | 54 | 69 | 0.9 | 5.2 | 0.00 | 0.00 | 0.00 | 39 | 1011.3 |
| 20260503020331 | 55 | 11 | 0.9 | 3.5 | 0.00 | 0.00 | 0.00 | 38 | 1011.4 |
| 20260503020058 | 54 | 316 | 0.0 | 5.2 | 0.00 | 0.00 | 0.00 | 38 | 1011.4 |
| 20260503014505 | 55 | 38 | 1.7 | 5.2 | 0.00 | 0.00 | 0.00 | 38 | 1011.3 |
| 20260503013026 | 55 | 45 | 0.9 | 7.0 | 0.00 | 0.00 | 0.00 | 37 | 1011.5 |
| 20260503011551 | 55 | 209 | 0.9 | 7.8 | 0.00 | 0.00 | 0.00 | 37 | 1011.3 |
| 20260503010051 | 56 | 290 | 1.7 | 7.0 | 0.00 | 0.00 | 0.00 | 37 | 1011.1 |